Weather History for Auburn, CA

Change the Weather History Date:

Sunday, October 2, 2011

  Actual Average Record
Temperature  
Mean Temperature 63 °F -  
Max Temperature 73 °F 81 °F 98 °F (1952)
Min Temperature 53 °F 55 °F 41 °F (1973)
Degree Days  
Heating Degree Days 2    
Growing Degree Days 13 (Base 50)    
Moisture  
Dew Point 50 °F    
Average Humidity 64    
Maximum Humidity 88    
Minimum Humidity 41    
Precipitation  
Precipitation 0.00 in - - ()
Sea Level Pressure  
Sea Level Pressure 30.04 in    
Wind  
Wind Speed 3 mph (South)    
Max Wind Speed 10 mph    
Max Gust Speed -    
Visibility 10 miles    
Events      
Averages and records for this station are not official NWS values.
T = Trace of Precipitation, MM = Missing Value Source: NWS Daily Summary

Daily Weather History Graph

Daily Weather History Graph

Search for Another Location

Airport:

Trip Planner

Search our weather history database for the weather conditions in past years. The results will help you decide how hot, cold, wet, or windy it might be!

Date:

Astronomy

Oct. 02, 2011 Rise Set
Actual Time 7:01 AM PDT 6:45 PM PDT
Civil Twilight 6:34 AM PDT 7:12 PM PDT
Nautical Twilight 6:03 AM PDT 7:43 PM PDT
Astronomical Twilight 5:32 AM PDT 8:14 PM PDT
Moon 1:09 PM PDT (10/2) 10:52 PM PDT (10/2)
Length of Visible Light 12h 37m
Length of Day
11h 44m
Waxing Crescent, 36% of the Moon is Illuminated
Oct 2
Waxing Crescent
Oct 3
First Quarter
Oct 11
Full
Oct 19
Last Quarter
Oct 26
New

Hourly Weather History & Observations

Time (PDT) Temp. Dew Point Humidity Pressure Visibility Wind Dir Wind Speed Gust Speed Precip Events Conditions
12:15 AM 57.2 °F 51.8 °F 82% 30.04 in 10.0 mi Calm Calm - N/A   Clear
12:35 AM 57.2 °F 51.8 °F 82% 30.04 in 10.0 mi Calm Calm - N/A   Clear
12:55 AM 55.4 °F 51.8 °F 88% 30.04 in 10.0 mi Calm Calm - N/A   Clear
1:15 AM 57.2 °F 51.8 °F 82% 30.04 in 10.0 mi East 4.6 mph - N/A   Clear
1:35 AM 57.2 °F 51.8 °F 82% 30.04 in 10.0 mi East 5.8 mph - N/A   Clear
1:55 AM 57.2 °F 51.8 °F 82% 30.04 in 10.0 mi East 3.5 mph - N/A   Clear
2:15 AM 55.4 °F 51.8 °F 88% 30.04 in 10.0 mi Calm Calm - N/A   Clear
2:35 AM 57.2 °F 51.8 °F 82% 30.05 in 10.0 mi Calm Calm - N/A   Clear
2:55 AM 55.4 °F 51.8 °F 88% 30.05 in 10.0 mi East 4.6 mph - N/A   Clear
3:15 AM 55.4 °F 51.8 °F 88% 30.04 in 10.0 mi East 5.8 mph - N/A   Clear
3:35 AM 55.4 °F 51.8 °F 88% 30.04 in 10.0 mi Calm Calm - N/A   Clear
3:55 AM 55.4 °F 51.8 °F 88% 30.04 in 10.0 mi Calm Calm - N/A   Clear
4:35 AM 55.4 °F 51.8 °F 88% 30.02 in 10.0 mi ESE 5.8 mph - N/A   Clear
4:55 AM 55.4 °F 51.8 °F 88% 30.02 in 10.0 mi Calm Calm - N/A   Clear
5:15 AM 55.4 °F 51.8 °F 88% 30.02 in 10.0 mi East 3.5 mph - N/A   Clear
5:35 AM 55.4 °F 51.8 °F 88% 30.02 in 10.0 mi East 3.5 mph - N/A   Clear
5:55 AM 55.4 °F 50.0 °F 82% 30.02 in 10.0 mi ESE 3.5 mph - N/A   Clear
6:15 AM 55.4 °F 50.0 °F 82% 30.02 in 10.0 mi SE 6.9 mph - N/A   Clear
6:35 AM 55.4 °F 50.0 °F 82% 30.03 in 10.0 mi East 3.5 mph - N/A   Clear
6:55 AM 55.4 °F 50.0 °F 82% 30.04 in 10.0 mi ESE 4.6 mph - N/A   Clear
7:15 AM 55.4 °F 50.0 °F 82% 30.04 in 10.0 mi East 4.6 mph - N/A   Clear
7:55 AM 53.6 °F 50.0 °F 88% 30.05 in 10.0 mi Calm Calm - N/A   Clear
8:35 AM 59.0 °F 50.0 °F 72% 30.06 in 10.0 mi Calm Calm - N/A   Clear
8:55 AM 60.8 °F 50.0 °F 68% 30.07 in 10.0 mi Calm Calm - N/A   Clear
9:15 AM 62.6 °F 51.8 °F 68% 30.07 in 10.0 mi SSE 3.5 mph - N/A   Clear
9:35 AM 62.6 °F 51.8 °F 68% 30.08 in 10.0 mi Calm Calm - N/A   Clear
9:55 AM 62.6 °F 51.8 °F 68% 30.08 in 10.0 mi SW 4.6 mph - N/A   Clear
10:15 AM 64.4 °F 51.8 °F 64% 30.09 in 10.0 mi South 4.6 mph - N/A   Clear
10:35 AM 64.4 °F 51.8 °F 64% 30.09 in 10.0 mi SW 5.8 mph - N/A   Clear
10:55 AM 66.2 °F 50.0 °F 56% 30.09 in 10.0 mi SSW 5.8 mph - N/A   Clear
11:35 AM 68.0 °F 50.0 °F 52% 30.09 in 10.0 mi South 6.9 mph - N/A   Clear
12:15 PM 69.8 °F 50.0 °F 49% 30.07 in 10.0 mi South 6.9 mph - N/A   Clear
12:35 PM 69.8 °F 50.0 °F 49% 30.07 in 10.0 mi SSW 8.1 mph - N/A   Clear
12:55 PM 71.6 °F 50.0 °F 46% 30.07 in 10.0 mi SSW 8.1 mph - N/A   Clear
1:15 PM 71.6 °F 50.0 °F 46% 30.06 in 10.0 mi SSW 6.9 mph - N/A   Clear
1:35 PM 71.6 °F 50.0 °F 46% 30.05 in 10.0 mi SSW 9.2 mph - N/A   Clear
1:55 PM 73.4 °F 50.0 °F 44% 30.04 in 10.0 mi SSW 9.2 mph - N/A   Clear
2:15 PM 73.4 °F 50.0 °F 44% 30.03 in 10.0 mi SW 9.2 mph - N/A   Clear
2:35 PM 71.6 °F 48.2 °F 43% 30.03 in 10.0 mi SSW 10.4 mph - N/A   Clear
2:55 PM 71.6 °F 48.2 °F 43% 30.03 in 10.0 mi SW 9.2 mph - N/A   Clear
3:15 PM 73.4 °F 48.2 °F 41% 30.03 in 10.0 mi WSW 8.1 mph - N/A   Clear
3:35 PM 73.4 °F 48.2 °F 41% 30.02 in 10.0 mi WSW 9.2 mph - N/A   Clear
3:55 PM 73.4 °F 48.2 °F 41% 30.02 in 10.0 mi WSW 6.9 mph - N/A   Clear
4:15 PM 71.6 °F 48.2 °F 43% 30.01 in 10.0 mi WSW 6.9 mph - N/A   Clear
4:35 PM 71.6 °F 48.2 °F 43% 30.01 in 10.0 mi SW 4.6 mph - N/A   Clear
4:55 PM 71.6 °F 48.2 °F 43% 30.01 in 10.0 mi WSW 8.1 mph - N/A   Clear
5:15 PM 71.6 °F 48.2 °F 43% 30.01 in 10.0 mi SSW 6.9 mph - N/A   Clear
5:55 PM 69.8 °F 46.4 °F 43% 30.00 in 10.0 mi SSW 5.8 mph - N/A   Clear
6:15 PM 68.0 °F 44.6 °F 43% 30.00 in 10.0 mi SSW 5.8 mph - N/A   Clear
6:35 PM 66.2 °F 44.6 °F 46% 30.00 in 10.0 mi SSW 5.8 mph - N/A   Clear
6:55 PM 66.2 °F 46.4 °F 49% 30.00 in 10.0 mi Calm Calm - N/A   Clear
7:55 PM 64.4 °F 44.6 °F 49% 30.00 in 10.0 mi Calm Calm - N/A   Clear
8:15 PM 62.6 °F 44.6 °F 52% 30.00 in 10.0 mi Calm Calm - N/A   Clear
8:55 PM 62.6 °F 44.6 °F 52% 30.01 in 10.0 mi Calm Calm - N/A   Clear
9:15 PM 62.6 °F 44.6 °F 52% 30.01 in 10.0 mi Calm Calm - N/A   Clear
9:55 PM 60.8 °F 44.6 °F 55% 30.01 in 10.0 mi Calm Calm - N/A   Clear
10:35 PM 59.0 °F 46.4 °F 63% 30.00 in 10.0 mi SE 4.6 mph - N/A   Clear
10:55 PM 59.0 °F 46.4 °F 63% 30.00 in 10.0 mi SE 6.9 mph - N/A   Clear
11:15 PM 59.0 °F 46.4 °F 63% 30.00 in 10.0 mi SE 4.6 mph - N/A   Clear